This is the latest recevied weather packets stored in our database for station/object XE2RCS-21. If no packets are shown the sender has not sent any weather packets the latest 1 day(s).
| Time | Temp. | Humidity | Pressure | Rain* | Wind** | Luminosity | Snow |
|---|---|---|---|---|---|---|---|
| 1777923035 | 33.89° C | 33% | 1020.3 hPa | - | - | - | - |
| 1777921235 | 35° C | 30% | 1020.5 hPa | - | - | - | - |
| 1777919435 | 35° C | 30% | 1020.7 hPa | - | - | - | - |
| 1777917635 | 33.33° C | 29% | 1021 hPa | - | - | - | - |
| 1777915834 | 33.89° C | 28% | 1021.2 hPa | - | - | - | - |
| 1777914034 | 39.44° C | 26% | 1021.4 hPa | - | - | - | - |
| 1777912234 | 35.56° C | 31% | 1021.7 hPa | - | - | - | - |
| 1777910434 | 34.44° C | 33% | 1022.1 hPa | - | - | - | - |
| 1777908637 | 31.67° C | 38% | 1022.1 hPa | - | - | - | - |
| 1777906836 | 27.78° C | 48% | 1022.3 hPa | - | - | - | - |
| 1777905036 | 25.56° C | 62% | 1021.6 hPa | - | - | - | - |
| 1777903236 | 23.33° C | 82% | 1020.9 hPa | - | - | - | - |
| 1777901436 | 21.67° C | 100% | 1019.8 hPa | - | - | - | - |
| 1777899636 | 19.44° C | 100% | 1018.3 hPa | - | - | - | - |
| 1777897835 | 17.22° C | 100% | 1014.4 hPa | - | - | - | - |
| 1777896035 | 16.11° C | 100% | 1013.7 hPa | - | - | - | - |
| 1777894235 | 17.22° C | 100% | 1013.3 hPa | - | - | - | - |
| 1777892434 | 16.67° C | 100% | 1011.8 hPa | - | - | - | - |
| 1777890634 | 15.56° C | 100% | 1011.1 hPa | - | - | - | - |
| 1777888834 | 14.44° C | 100% | 1010.2 hPa | - | - | - | - |
| 1777887034 | 13.89° C | 100% | 1010.1 hPa | - | - | - | - |
| 1777885234 | 13.89° C | 100% | 1010.2 hPa | - | - | - | - |
| 1777883434 | 13.89° C | 100% | 1010.2 hPa | - | - | - | - |
| 1777881634 | 13.89° C | 100% | 1010 hPa | - | - | - | - |
| 1777879834 | 13.89° C | 100% | 1010.4 hPa | - | - | - | - |
* Rain since midnight (hover to see other rain measurements)
** Current wind speed in m/s (hover to see current wind gust speed)